Terug naar catalogus

STARLINK-30270

ActiefCommunicatieVLEO
NORAD 57530·PAYLOAD·🇺🇸 United States

Gelanceerd Aug 8, 2023 vanaf Vandenberg Space Force Base

Loading…

Volgende Passages (komende 24 uur)

TLE

VersSource: CelesTrak SupGP

Epoch: Sep 15, 2026, 03:00 UTC

1 57530C 23115K   26258.12548611  .00017898  00000+0  64816-3 0  2581
2 57530  43.0042  11.4852 0001383 263.6761 198.5385 15.27575148    17

Volg STARLINK-30270 in realtime met AllMySat

Download on the App Store